FW1757 Weather Reports


time (UTC)temp
C
wind
direction
speed
KPH
gust
KPH
rain 1hr
cm
rain 24hr
cm
rain mn
cm
humidity
%
barometer
mb
20260901142024 16 254 0.0 0.0 0.00 0.00 0.00 71 1007.6
20260901141531 16 242 0.0 0.0 0.00 0.00 0.00 71 1007.5
20260901141023 16 232 0.0 0.0 0.00 0.00 0.00 71 1007.5
20260901140520 16 205 0.0 0.0 0.00 0.00 0.00 71 1007.3
20260901140022 16 234 0.0 0.0 0.00 0.00 0.00 71 1007.3
20260901135521 16 287 0.0 0.0 0.00 0.00 0.00 71 1007.2
20260901135019 16 261 0.0 0.0 0.00 0.00 0.00 71 1007.3
20260901134518 16 281 0.0 0.0 0.00 0.00 0.00 70 1007.3
20260901134017 16 241 0.0 0.0 0.00 0.00 0.00 70 1007.1
20260901133520 16 265 0.0 0.0 0.00 0.00 0.00 70 1007.1
20260901133018 16 300 0.0 0.0 0.00 0.00 0.00 70 1007.0
20260901132515 16 252 0.0 0.0 0.00 0.00 0.00 70 1006.9
20260901132018 16 286 0.0 0.0 0.00 0.00 0.00 70 1006.9
20260901131518 16 274 0.0 0.0 0.00 0.00 0.00 70 1006.9
20260901131019 16 292 0.0 0.0 0.00 0.00 0.00 70 1006.9
20260901130615 16 254 0.0 0.0 0.00 0.00 0.00 70 1006.8
20260901130013 16 301 0.0 0.0 0.00 0.00 0.00 70 1006.8
20260901125511 16 286 0.0 0.0 0.00 0.00 0.00 69 1006.7
20260901125011 16 263 0.0 0.0 0.00 0.00 0.00 69 1006.8
20260901124510 16 248 0.0 0.0 0.00 0.00 0.00 69 1006.7
20260901124008 16 233 0.0 0.0 0.00 0.00 0.00 69 1006.9
20260901123508 17 247 0.0 0.0 0.00 0.00 0.00 69 1006.6
20260901123010 17 271 0.0 0.0 0.00 0.00 0.00 69 1006.6
20260901122506 17 256 0.0 0.0 0.00 0.00 0.00 68 1006.6
20260901122006 17 289 0.0 0.0 0.00 0.00 0.00 68 1006.6
20260901121506 17 287 0.0 0.0 0.00 0.00 0.00 68 1006.6
20260901121010 17 304 0.0 0.0 0.00 0.00 0.00 68 1006.7
20260901120505 17 242 0.0 0.0 0.00 0.00 0.00 67 1006.7
20260901120005 17 244 0.0 0.0 0.00 0.00 0.00 67 1006.6
20260901115504 17 246 0.0 0.0 0.00 0.00 0.00 67 1006.7
20260901115003 17 247 0.0 0.0 0.00 0.00 0.00 67 1006.8
20260901114502 17 267 0.0 0.0 0.00 0.00 0.00 67 1006.6
20260901114003 17 209 0.0 0.0 0.00 0.00 0.00 67 1006.6
20260901113502 17 261 0.0 0.0 0.00 0.00 0.00 67 1006.6
20260901113000 17 230 0.0 0.0 0.00 0.00 0.00 66 1006.6
20260901112600 17 258 0.0 0.0 0.00 0.00 0.00 66 1006.6
20260901112104 17 259 0.0 0.0 0.00 0.00 0.00 66 1006.5
20260901111603 18 260 0.0 0.0 0.00 0.00 0.00 66 1006.5
20260901111059 18 265 0.0 0.0 0.00 0.00 0.00 65 1006.5
20260901110558 18 228 0.0 0.0 0.00 0.00 0.00 65 1006.5
20260901110059 18 273 0.0 0.0 0.00 0.00 0.00 65 1006.3
20260901105559 18 277 0.0 0.0 0.00 0.00 0.00 65 1006.5
20260901105057 18 242 0.0 0.0 0.00 0.00 0.00 64 1006.5
20260901104601 18 282 0.0 0.0 0.00 0.00 0.00 64 1006.4
20260901104057 18 242 0.0 0.0 0.00 0.00 0.00 64 1006.4
20260901103556 18 198 0.0 0.0 0.00 0.00 0.00 63 1006.3
20260901103059 18 269 0.0 0.0 0.00 0.00 0.00 63 1006.3
20260901102557 18 242 0.0 0.0 0.00 0.00 0.00 63 1006.3
20260901102057 18 253 0.0 0.0 0.00 0.00 0.00 62 1006.4
20260901101606 18 263 0.0 0.0 0.00 0.00 0.00 63 1006.5
20260901101056 18 283 0.0 0.0 0.00 0.00 0.00 63 1006.4
20260901100556 18 224 0.0 0.0 0.00 0.00 0.00 63 1006.3
20260901100107 18 256 0.0 0.0 0.00 0.00 0.00 63 1006.2
20260901095556 18 250 0.0 0.0 0.00 0.00 0.00 64 1006.2
20260901095055 18 223 0.0 0.0 0.00 0.00 0.00 64 1006.4
20260901094555 18 274 0.0 0.0 0.00 0.00 0.00 64 1006.4
20260901094056 18 309 0.0 0.0 0.00 0.00 0.00 63 1006.4
20260901093554 18 256 0.0 0.0 0.00 0.00 0.00 63 1006.4
20260901093054 18 252 0.0 0.0 0.00 0.00 0.00 63 1006.4
20260901092554 18 252 0.0 0.0 0.00 0.00 0.00 63 1006.3
20260901092054 18 252 0.0 0.0 0.00 0.00 0.00 62 1006.4
20260901091554 18 266 0.0 0.0 0.00 0.00 0.00 63 1006.4
20260901091054 18 256 0.0 0.0 0.00 0.00 0.00 62 1006.5
20260901090554 18 269 0.0 0.0 0.00 0.00 0.00 62 1006.3
20260901090100 18 278 0.0 0.0 0.00 0.00 0.00 62 1006.2
20260901085552 18 273 0.0 0.0 0.00 0.00 0.00 61 1006.4
20260901085051 18 248 0.0 0.0 0.00 0.00 0.00 59 1006.4
20260901084607 18 272 0.0 0.0 0.00 0.00 0.00 59 1006.4
20260901084050 18 275 0.0 0.0 0.00 0.00 0.00 57 1006.4
20260901083550 18 242 0.0 0.0 0.00 0.00 0.00 56 1006.5
20260901083049 18 242 0.0 0.0 0.00 0.00 0.00 56 1006.5
20260901082548 18 242 0.0 0.0 0.00 0.00 0.00 55 1006.6
20260901082048 18 242 0.0 0.0 0.00 0.00 0.00 54 1006.6
20260901081547 18 242 0.0 0.0 0.00 0.00 0.00 53 1006.6
20260901081048 18 244 0.0 0.0 0.00 0.00 0.00 52 1006.6
20260901080546 18 244 0.0 0.0 0.00 0.00 0.00 52 1006.6
20260901080105 18 257 0.0 0.0 0.00 0.00 0.00 51 1006.6
20260901075546 18 261 0.0 0.0 0.00 0.00 0.00 51 1006.6
20260901075045 18 250 0.0 0.0 0.00 0.00 0.00 51 1006.6
20260901074547 18 254 0.0 0.0 0.00 0.00 0.00 50 1006.5
20260901074047 18 254 0.0 0.0 0.00 0.00 0.00 50 1006.4
20260901073543 18 254 0.0 0.0 0.00 0.00 0.00 49 1006.4
20260901073049 18 254 0.0 0.0 0.00 0.00 0.00 49 1006.4
20260901072542 18 254 0.0 0.0 0.00 0.00 0.00 48 1006.4
20260901072048 18 254 0.0 0.0 0.00 0.00 0.00 48 1006.3
20260901071541 18 254 0.0 0.0 0.00 0.00 0.00 48 1006.3
20260901071040 18 254 0.0 0.0 0.00 0.00 0.00 47 1006.3
20260901070543 18 257 0.0 0.0 0.00 0.00 0.00 47 1006.3
20260901070039 18 215 0.0 0.0 0.00 0.00 0.00 47 1006.2
20260901065539 18 215 0.0 0.0 0.00 0.00 0.00 46 1006.1
20260901065038 18 215 0.0 0.0 0.00 0.00 0.00 46 1006.2
20260901064538 18 215 0.0 0.0 0.00 0.00 0.00 46 1006.2
20260901064037 18 215 0.0 0.0 0.00 0.00 0.00 46 1006.1
20260901063537 18 215 0.0 0.0 0.00 0.00 0.00 46 1006.1
20260901063037 18 215 0.0 0.0 0.00 0.00 0.00 45 1006.2
20260901062537 18 215 0.0 0.0 0.00 0.00 0.00 45 1006.2
20260901062037 18 213 0.0 0.0 0.00 0.00 0.00 45 1006.2
20260901061537 18 211 0.0 0.0 0.00 0.00 0.00 45 1006.3
20260901061037 18 159 0.0 0.0 0.00 0.00 0.00 44 1006.2
20260901060537 18 159 0.0 0.0 0.00 0.00 0.00 44 1006.2
20260901060041 19 159 0.0 0.0 0.00 0.00 0.00 43 1006.2
20260901055536 19 159 0.0 0.0 0.00 0.00 0.00 43 1006.2
20260901055036 19 159 0.0 0.0 0.00 0.00 0.00 42 1006.2
20260901054537 20 159 0.0 0.0 0.00 0.00 0.00 41 1006.4
20260901054036 20 159 0.0 0.0 0.00 0.00 0.00 41 1006.5
20260901053535 20 159 0.0 0.0 0.00 0.00 0.00 41 1006.5
20260901053045 20 159 0.0 0.0 0.00 0.00 0.00 41 1006.5
20260901052535 20 159 0.0 0.0 0.00 0.00 0.00 40 1006.5
20260901052035 20 159 0.0 0.0 0.00 0.00 0.00 40 1006.5
20260901051535 20 159 0.0 0.0 0.00 0.00 0.00 39 1006.6
20260901051035 20 159 0.0 0.0 0.00 0.00 0.00 39 1006.5
20260901050537 20 159 0.0 0.0 0.00 0.00 0.00 38 1006.5
20260901050036 20 159 0.0 0.0 0.00 0.00 0.00 38 1006.3
20260901045536 20 159 0.0 0.0 0.00 0.00 0.00 38 1006.4
20260901045034 21 159 0.0 0.0 0.00 0.00 0.00 38 1006.3
20260901044535 21 159 0.0 0.0 0.00 0.00 0.00 37 1006.3
20260901044035 21 159 0.0 0.0 0.00 0.00 0.00 37 1006.2
20260901043535 21 159 0.0 0.0 0.00 0.00 0.00 37 1006.2
20260901043033 21 159 0.0 0.0 0.00 0.00 0.00 37 1006.2
20260901042533 21 159 0.0 0.0 0.00 0.00 0.00 36 1006.2
20260901042037 21 159 0.0 0.0 0.00 0.00 0.00 36 1006.2
20260901041540 21 159 0.0 0.0 0.00 0.00 0.00 36 1006.2
20260901041036 21 159 0.0 0.0 0.00 0.00 0.00 36 1006.1
20260901040537 21 159 0.0 0.0 0.00 0.00 0.00 35 1006.0
20260901040036 21 159 0.0 0.0 0.00 0.00 0.00 35 1006.0
20260901035536 21 155 0.0 0.0 0.00 0.00 0.00 34 1005.9
20260901035032 21 155 0.0 0.0 0.00 0.00 0.00 35 1005.8
20260901034533 21 155 0.0 0.0 0.00 0.00 0.00 35 1005.9
20260901034032 21 155 0.0 0.0 0.00 0.00 0.00 34 1005.8
20260901033535 21 155 0.0 0.0 0.00 0.00 0.00 34 1005.8
20260901033032 21 155 0.0 0.0 0.00 0.00 0.00 34 1005.7
20260901032532 21 155 0.0 0.0 0.00 0.00 0.00 34 1005.6
20260901032032 21 155 0.0 0.0 0.00 0.00 0.00 35 1005.5
20260901031531 21 155 0.0 0.0 0.00 0.00 0.00 34 1005.5
20260901031032 21 155 0.0 0.0 0.00 0.00 0.00 35 1005.6
20260901030533 21 155 0.0 0.0 0.00 0.00 0.00 34 1005.6
20260901030031 21 155 0.0 0.0 0.00 0.00 0.00 34 1005.5
20260901025531 22 155 0.0 0.0 0.00 0.00 0.00 33 1005.5
20260901025031 22 155 0.0 0.0 0.00 0.00 0.00 33 1005.5
20260901024530 23 155 0.0 0.0 0.00 0.00 0.00 32 1005.5
20260901024033 23 155 0.0 0.0 0.00 0.00 0.00 31 1005.4
20260901023529 23 155 0.0 0.0 0.00 0.00 0.00 31 1005.3
20260901023029 24 155 0.0 0.0 0.00 0.00 0.00 30 1005.4
20260901022530 25 155 0.0 0.0 0.00 0.00 0.00 29 1005.4
20260901022030 25 155 0.0 0.0 0.00 0.00 0.00 28 1005.4
20260901021534 26 155 0.0 0.0 0.00 0.00 0.00 27 1005.4
20260901021029 27 155 0.0 0.0 0.00 0.00 0.00 27 1005.4
20260901020528 27 155 0.0 0.0 0.00 0.00 0.00 26 1005.3
20260901020029 28 155 0.0 0.0 0.00 0.00 0.00 25 1005.4
20260901015527 28 155 0.0 0.0 0.00 0.00 0.00 24 1005.5
20260901015026 29 155 0.0 0.0 0.00 0.00 0.00 24 1005.6
20260901014526 29 155 0.0 0.0 0.00 0.00 0.00 23 1005.5
20260901014026 30 155 0.0 0.0 0.00 0.00 0.00 21 1005.6
20260901013526 30 155 0.0 0.0 0.00 0.00 0.00 21 1005.5
20260901013026 30 155 0.0 0.0 0.00 0.00 0.00 21 1005.6
20260901012525 30 155 0.0 0.0 0.00 0.00 0.00 21 1005.6
20260901012025 30 155 0.0 0.0 0.00 0.00 0.00 21 1005.6
20260901011535 30 151 0.0 0.0 0.00 0.00 0.00 21 1005.7
20260901011025 31 151 0.0 0.0 0.00 0.00 0.00 20 1005.6
20260901010525 31 150 0.0 0.0 0.00 0.00 0.00 20 1005.6
20260901010035 31 150 0.0 0.0 0.00 0.00 0.00 20 1005.6
20260901005524 31 199 0.0 0.0 0.00 0.00 0.00 20 1005.7
20260901005024 31 152 0.0 0.0 0.00 0.00 0.00 20 1005.7
20260901004525 31 159 0.0 0.0 0.00 0.00 0.00 20 1005.7
20260901004023 31 150 0.0 0.0 0.00 0.00 0.00 20 1005.7
20260901003524 31 147 0.0 0.0 0.00 0.00 0.00 20 1005.8
20260901003023 31 128 0.0 0.0 0.00 0.00 0.00 19 1005.8
20260901002523 31 167 0.0 0.0 0.00 0.00 0.00 20 1005.9
20260901002023 31 150 0.0 0.0 0.00 0.00 0.00 19 1005.8
20260901001527 31 147 0.0 0.0 0.00 0.00 0.00 20 1005.9
20260901001021 31 167 0.0 0.0 0.00 0.00 0.00 20 1006.0
20260901000520 31 155 0.0 0.0 0.00 0.00 0.00 19 1006.1
20260901000021 31 117 0.0 0.0 0.00 0.00 0.00 19 1006.2
20260831235521 31 79 0.0 0.0 0.00 0.00 0.00 20 1006.2
20260831235019 31 188 0.0 0.0 0.00 0.00 0.00 20 1006.2
20260831234521 31 141 0.0 0.0 0.00 0.00 0.00 20 1006.5
20260831234019 31 128 0.0 0.0 0.00 0.00 0.00 19 1006.4
20260831233518 31 159 0.0 0.0 0.00 0.00 0.00 19 1006.4
20260831233034 31 126 0.0 0.0 0.00 0.00 0.00 20 1006.4
20260831232517 31 134 0.0 0.0 0.00 0.00 0.00 20 1006.5
20260831232021 32 143 0.0 0.0 0.00 0.00 0.00 19 1006.5
20260831231520 31 156 0.0 0.0 0.00 0.00 0.00 20 1006.5
20260831231015 31 169 0.0 0.0 0.00 0.00 0.00 19 1006.7
20260831230515 31 68 0.0 0.0 0.00 0.00 0.00 19 1006.7
20260831230014 31 143 0.0 0.0 0.00 0.00 0.00 20 1006.8
20260831225514 31 138 0.0 0.0 0.00 0.00 0.00 20 1006.9
20260831225011 31 161 0.0 0.0 0.00 0.00 0.00 20 1007.0
20260831224510 31 155 0.0 0.0 0.00 0.00 0.00 20 1007.2
20260831224010 31 157 0.0 0.0 0.00 0.00 0.00 20 1007.2
20260831223508 31 150 0.0 0.0 0.00 0.00 0.00 21 1007.3
20260831223008 31 133 0.0 0.0 0.00 0.00 0.00 21 1007.5
20260831222506 31 155 0.0 0.0 0.00 0.00 0.00 21 1007.6
20260831222006 30 158 0.0 0.0 0.00 0.00 0.00 21 1007.7
20260831221504 30 162 0.0 0.0 0.00 0.00 0.00 22 1007.7
20260831221004 30 142 0.0 0.0 0.00 0.00 0.00 22 1007.8
20260831220503 30 119 0.0 0.0 0.00 0.00 0.00 22 1007.8
20260831220004 30 151 0.0 0.0 0.00 0.00 0.00 23 1007.9
20260831215501 30 137 0.0 0.0 0.00 0.00 0.00 23 1008.0
20260831215100 30 172 0.0 0.0 0.00 0.00 0.00 23 1008.1
20260831214609 30 155 0.0 0.0 0.00 0.00 0.00 23 1008.2
20260831214101 29 144 0.0 0.0 0.00 0.00 0.00 24 1008.2
20260831213556 29 165 0.0 0.0 0.00 0.00 0.00 24 1008.3
20260831213055 28 130 0.0 0.0 0.00 0.00 0.00 24 1008.3
20260831212554 28 69 0.0 0.0 0.00 0.00 0.00 24 1008.4
20260831212054 28 121 0.0 0.0 0.00 0.00 0.00 25 1008.5
20260831211552 28 123 0.0 0.0 0.00 0.00 0.00 25 1008.5
20260831211050 28 86 0.0 0.0 0.00 0.00 0.00 25 1008.6
20260831210553 28 127 0.0 0.0 0.00 0.00 0.00 25 1008.5
20260831210049 28 181 0.0 0.0 0.00 0.00 0.00 25 1008.6
20260831205552 28 116 0.0 0.0 0.00 0.00 0.00 26 1008.8
20260831205047 28 126 0.0 0.0 0.00 0.00 0.00 26 1008.8
20260831204546 27 149 0.0 0.0 0.00 0.00 0.00 28 1008.9
20260831204045 27 92 0.0 0.0 0.00 0.00 0.00 27 1008.9
20260831203545 27 107 0.0 0.0 0.00 0.00 0.00 27 1009.0
20260831203042 27 112 0.0 0.0 0.00 0.00 0.00 28 1009.1
20260831202542 27 77 0.0 0.0 0.00 0.00 0.00 29 1009.4
20260831202041 27 102 0.0 0.0 0.00 0.00 0.00 30 1009.6
20260831201539 27 127 0.0 0.0 0.00 0.00 0.00 30 1009.7
20260831201039 27 148 0.0 0.0 0.00 0.00 0.00 30 1009.9
20260831200538 26 148 0.0 0.0 0.00 0.00 0.00 31 1010.1
20260831200039 26 94 0.0 0.0 0.00 0.00 0.00 31 1010.0
20260831195534 26 137 0.0 0.0 0.00 0.00 0.00 32 1010.1
20260831195033 26 78 0.0 0.0 0.00 0.00 0.00 32 1010.2
20260831194533 26 100 0.0 0.0 0.00 0.00 0.00 32 1010.3
20260831194030 25 144 0.0 0.0 0.00 0.00 0.00 33 1010.3
20260831193531 25 176 0.0 0.0 0.00 0.00 0.00 34 1010.4
20260831193034 25 104 0.0 0.0 0.00 0.00 0.00 34 1010.5
20260831192527 25 156 0.0 0.0 0.00 0.00 0.00 34 1010.6
20260831192025 24 128 0.0 0.0 0.00 0.00 0.00 35 1010.7
20260831191524 24 132 0.0 0.0 0.00 0.00 0.00 35 1010.7
20260831191025 24 159 0.0 0.0 0.00 0.00 0.00 36 1010.8
20260831190522 23 89 0.0 0.0 0.00 0.00 0.00 35 1011.0
20260831190024 23 71 0.0 0.0 0.00 0.00 0.00 35 1011.0
20260831185519 23 163 0.0 0.0 0.00 0.00 0.00 37 1011.0
20260831185018 23 153 0.0 0.0 0.00 0.00 0.00 37 1011.2
20260831184517 23 57 0.0 0.0 0.00 0.00 0.00 37 1011.3
20260831184016 23 127 0.0 0.0 0.00 0.00 0.00 38 1011.3
20260831183514 22 146 0.0 0.0 0.00 0.00 0.00 38 1011.5
20260831183013 22 71 0.0 0.0 0.00 0.00 0.00 39 1011.5
20260831182514 22 200 0.0 0.0 0.00 0.00 0.00 39 1011.7
20260831182012 22 135 0.0 0.0 0.00 0.00 0.00 40 1011.8
20260831181511 22 136 0.0 0.0 0.00 0.00 0.00 40 1011.9
20260831181010 22 82 0.0 0.0 0.00 0.00 0.00 40 1012.0
20260831180508 22 126 0.0 0.0 0.00 0.00 0.00 42 1012.0
20260831180008 21 65 0.0 0.0 0.00 0.00 0.00 43 1012.1
20260831175506 21 57 0.0 0.0 0.00 0.00 0.00 44 1012.1
20260831175004 21 113 0.0 0.0 0.00 0.00 0.00 44 1012.2
20260831174506 20 104 0.0 0.0 0.00 0.00 0.00 47 1012.1
20260831174001 20 153 0.0 0.0 0.00 0.00 0.00 48 1012.2
20260831173559 19 95 0.0 0.0 0.00 0.00 0.00 50 1012.2
20260831173059 18 34 0.0 0.0 0.00 0.00 0.00 58 1012.3
20260831172557 18 38 0.0 0.0 0.00 0.00 0.00 61 1012.3
20260831172056 18 40 0.0 0.0 0.00 0.00 0.00 62 1012.3
20260831171555 17 40 0.0 0.0 0.00 0.00 0.00 63 1012.5
20260831171053 17 12 0.0 0.0 0.00 0.00 0.00 64 1012.5
20260831170552 17 55 0.0 0.0 0.00 0.00 0.00 65 1012.4
20260831170051 16 51 0.0 0.0 0.00 0.00 0.00 66 1012.5
20260831165549 16 49 0.0 0.0 0.00 0.00 0.00 67 1012.4
20260831165047 16 51 0.0 0.0 0.00 0.00 0.00 67 1012.6
20260831164549 15 51 0.0 0.0 0.00 0.00 0.00 68 1012.7
20260831164045 15 46 0.0 0.0 0.00 0.00 0.00 69 1012.7
20260831163544 15 28 0.0 0.0 0.00 0.00 0.00 69 1012.7
20260831163045 15 40 0.0 0.0 0.00 0.00 0.00 71 1012.8
20260831162544 14 39 0.0 0.0 0.00 0.00 0.00 71 1012.8
20260831162045 14 23 0.0 0.0 0.00 0.00 0.00 71 1012.8
20260831161550 13 38 0.0 0.0 0.00 0.00 0.00 71 1013.0
20260831161043 13 22 0.0 0.0 0.00 0.00 0.00 72 1013.0
20260831160542 13 26 0.0 0.0 0.00 0.00 0.00 72 1013.0
20260831160042 13 306 0.0 0.0 0.00 0.00 0.00 72 1013.0
20260831155542 13 306 0.0 0.0 0.00 0.00 0.00 72 1013.0
20260831155042 12 306 0.0 0.0 0.00 0.00 0.00 72 1013.1
20260831154542 12 306 0.0 0.0 0.00 0.00 0.00 68 1013.1
20260831154043 12 306 0.0 0.0 0.00 0.00 0.00 67 1013.1
20260831153544 12 248 0.0 0.0 0.00 0.00 0.00 61 1013.1
20260831153041 12 248 0.0 0.0 0.00 0.00 0.00 53 1013.1
20260831152541 11 248 0.0 0.0 0.00 0.00 0.00 43 1013.1
20260831152041 11 248 0.0 0.0 0.00 0.00 0.00 40 1013.2
20260831151540 11 248 0.0 0.0 0.00 0.00 0.00 39 1013.2
20260831151040 11 248 0.0 0.0 0.00 0.00 0.00 38 1013.0
20260831150542 11 248 0.0 0.0 0.00 0.00 0.00 39 1013.1
20260831150040 11 248 0.0 0.0 0.00 0.00 0.00 39 1013.0
20260831145539 10 248 0.0 0.0 0.00 0.00 0.00 36 1012.9
20260831145038 10 248 0.0 0.0 0.00 0.00 0.00 38 1013.0
20260831144537 10 248 0.0 0.0 0.00 0.00 0.00 42 1012.9
20260831144036 10 248 0.0 0.0 0.00 0.00 0.00 49 1012.8
20260831143536 10 248 0.0 0.0 0.00 0.00 0.00 53 1012.8
20260831143035 10 248 0.0 0.0 0.00 0.00 0.00 56 1012.8
20260831142535 10 248 0.0 0.0 0.00 0.00 0.00 56 1012.8